www.pogodaiklimat.ru
ПОГОДА на Острове Яп

Архив погоды на Острове Яп (Микронезия)

Время
(UTC), дата
22 12.08
23 12.08
00 13.08
01 13.08
02 13.08
03 13.08
04 13.08
05 13.08
06 13.08
07 13.08
08 13.08
09 13.08
10 13.08
11 13.08
12 13.08
13 13.08
14 13.08
15 13.08
16 13.08
17 13.08
18 13.08
19 13.08
20 13.08
21 13.08
22 13.08
23 13.08
00 14.08
01 14.08
02 14.08
03 14.08
04 14.08
05 14.08
06 14.08
07 14.08
08 14.08
09 14.08
10 14.08
11 14.08
12 14.08
13 14.08
14 14.08
15 14.08
16 14.08
18 14.08
19 14.08
20 14.08
21 14.08
22 14.08
23 14.08
00 15.08
01 15.08
02 15.08
03 15.08
04 15.08
05 15.08
06 15.08
07 15.08
08 15.08
09 15.08
10 15.08
11 15.08
12 15.08
13 15.08
14 15.08
15 15.08
16 15.08
17 15.08
18 15.08
19 15.08
20 15.08
21 15.08
22 15.08
23 15.08
00 16.08
01 16.08
02 16.08
03 16.08
04 16.08
05 16.08
06 16.08
07 16.08
08 16.08
09 16.08
10 16.08
11 16.08
12 16.08
13 16.08
14 16.08
15 16.08
16 16.08
17 16.08
18 16.08
19 16.08
21 16.08
22 16.08
23 16.08
00 17.08
01 17.08
02 17.08
03 17.08
04 17.08
05 17.08
06 17.08
07 17.08
08 17.08
09 17.08
10 17.08
11 17.08
12 17.08
13 17.08
14 17.08
15 17.08
16 17.08
17 17.08
18 17.08
19 17.08
20 17.08
21 17.08
22 17.08
23 17.08
00 18.08
01 18.08
02 18.08
03 18.08
04 18.08
05 18.08
06 18.08
07 18.08
08 18.08
09 18.08
10 18.08
11 18.08
12 18.08
13 18.08
14 18.08
15 18.08
16 18.08
17 18.08
18 18.08
19 18.08
21 18.08
22 18.08
23 18.08
00 19.08
01 19.08
02 19.08
03 19.08
04 19.08
05 19.08
06 19.08
07 19.08
08 19.08
09 19.08
10 19.08
11 19.08
12 19.08
13 19.08
14 19.08
15 19.08
16 19.08
17 19.08
18 19.08
19 19.08
20 19.08
Ветер
(напр.,м/с)
Видим. Явления Облачность Т
(С)
Тd
(С)
f
(%)
Тe
(С)
Тes
(С)
Комфортность P
(гПа)
Po
(гПа)
Тmin
(С)
Tmax
(С)
R
(мм)
R24
(мм)
S
(см)
нст 2 19 км 10/2 480 м
[Ac Ci]
+26.1 +25.5 97 +38 +38 очень
душно
1009.1 1009.0
нст 2 19 км 10/2 480 м
[Ac Ci]
+27.4 +25.8 91 +41 +41 опасность
перегрева
1010.0 1009.7
нст 3 19 км 10/4 300 м
[Cu med, cong Ac As Cs]
+27.7 +26.0 90 +41 +45 опасность
перегрева
1010.3 1007.8 +24.5 8 7.6
нст 2 19 км 10/2 480 м
[Ac Ci]
+28.3 +26.0 87 +42 +42 опасность
перегрева
1010.5 1010.4
нст 2 19 км 10/2 480 м
[Ac Ci]
+28.7 +25.9 85 +43 +43 опасность
перегрева
1009.8 1009.7
нст 3 19 км 10/2 480 м
[Ac Ci]
+29.0 +25.0 79 +42 +42 опасность
перегрева
1008.8 1008.7
нст 1 19 км 10/2 480 м
[Ac Ci]
+28.7 +25.6 83 +42 +42 опасность
перегрева
1008.4 1008.4
нст 2 19 км 10/2 480 м
[Ac Ci]
+28.9 +25.8 83 +43 +43 опасность
перегрева
1007.9 1007.7
нст 3 19 км 10/3 300 м
[Cu hum Ac As Ci fib]
+29.2 +26.0 83 +44 +47 опасность
перегрева
1007.4 1004.9 4.3
нст 2 19 км 10/5 480 м
[Ac Ci]
+29.3 +26.0 82 +44 +44 опасность
перегрева
1007.9 1007.7
нст 2 19 км 8/2 480 м
[Ac Ci]
+28.5 +25.3 83 +42 +42 опасность
перегрева
1007.9 1007.7
нст 1 19 км 8/2 480 м
[Ac Ci]
+27.4 +24.7 85 +39 +42 очень
душно
1008.3 1008.0
нст 1 19 км 10/2 480 м
[Ac Ci]
+27.3 +25.0 87 +39 +44 очень
душно
1009.1 1009.0
нст 3 18 км слаб. дождь 10/5 480 м
[Ac Cb Ns]
+25.4 +24.8 96 +36 +39 очень
душно
1009.6 1009.4
нст 2 17 км слаб. дождь {ливн. дождь} 10/3 300 м
[Cb calv As op]
+25.5 +24.9 96 +36 +44 очень
душно
1010.1 1010.0 +25.4 +29.3 2.3 6.6
нст 2 18 км слаб. дождь 10/2 480 м
[Ac Ns]
+25.6 +25.1 97 +37 +45 очень
душно
1010.5 1010.4
нст 2 18 км слаб. дождь 10/2 480 м
[Ac Ns]
+25.8 +25.3 97 +37 +45 очень
душно
1010.5 1010.4
нст 1 19 км 10/2 480 м
[Ac]
+25.8 +25.3 97 +37 +45 очень
душно
1009.8 1009.7 1.5
нст 1 19 км 10/5 480 м
[Ac]
+26.1 +25.7 98 +38 +42 очень
душно
1008.8 1008.7
нст 1 19 км 10/5 480 м
[Ac]
+26.4 +25.3 94 +38 +40 очень
душно
1008.6 1008.4
нст 2 19 км {ливн. дождь, дождь} 10/4 300 м
[Cu med, cong Ac As Ci fib]
+26.1 +25.0 94 +37 +37 очень
душно
1008.4 1006.9 +25.5 +26.4 1.5 3.8
нст 2 19 км 10/5 480 м
[Ac Ci]
+26.0 +25.3 96 +38 +38 очень
душно
1008.3 1008.0
нст 2 19 км 10/2 480 м
[Ac Ci]
+26.1 +25.1 94 +37 +37 очень
душно
1008.8 1008.7
нст 2 19 км 10/2 480 м
[Ac Ci Cb]
+26.3 +25.1 93 +38 +38 очень
душно
1009.0 1008.7
нст 2 н/о ливневой дождь 10/2 480 м
[Ac Ci Cb]
+26.8 +24.8 89 1009.3 1007.8
нст 2 16 км слаб. ливневой дождь 10/5 480 м
[Ac Ci Cb]
+26.4 +25.8 97 1010.1 1008.6
ЮЗ 5 8000 м ливневой дождь 10/8 300 м
[Cb calv Ac As]
+24.0 +23.6 98 +33 +33 очень
душно
1011.2 1009.7 +24.0 +26.8 19.8 23.6
нст 2 14 км слаб. ливневой дождь 10/8 450 м
[Ac Cb]
+24.0 +23.7 98 1011.2 1009.7
штиль 0 16 км слаб. дождь 10/5 480 м
[Ac Ns]
+24.8 +24.5 98 +35 +35 очень
душно
1011.0 1010.7
штиль 0 19 км 10/5 480 м
[Ac Cb]
+25.7 +25.2 97 1010.1 1008.6 17.3
нст 2 19 км 10/5 480 м
[Ac Cb]
+25.8 +25.0 95 1009.8 1008.3
нст 1 19 км 10/5 480 м
[Ac Ci Cb]
+25.7 +25.1 96 1009.6 1008.1
штиль 0 19 км {ливн. дождь, дождь} 10/4 300 м
[Cu hum Ac As Cs]
+25.8 +25.3 97 +37 +37 очень
душно
1009.3 1009.0 +24.0 +25.8 17.3 40.9
нст 1 19 км 10/5 480 м
[Ac]
+26.0 +25.2 95 +37 +37 очень
душно
1009.3 1009.0
нст 2 19 км 10/5 480 м
[Ac]
+26.1 +25.2 95 +38 +38 очень
душно
1009.3 1009.0
нст 2 19 км 10/2 480 м
[Ac Ci]
+26.3 +25.0 93 +38 +40 очень
душно
1009.5 1009.4
нст 3 19 км 10/2 480 м
[Ac Ci]
+26.6 +25.1 91 +38 +42 очень
душно
1009.5 1009.4
нст 2 19 км 10/2 480 м
[Ac Ci]
+26.7 +25.1 91 +38 +45 очень
душно
1009.5 1009.4
нст 3 19 км 10/3 300 м
[Cu med, cong Ac As Cs]
+27.1 +25.4 90 +39 +46 очень
душно
1009.5 1009.4 +25.8 +27.1 38.6
нст 3 19 км 10/5 480 м
[Ac Ci]
+27.1 +25.3 90 +39 +44 очень
душно
1009.5 1009.4
нст 2 19 км 10/5 480 м
[Ac Ci]
+27.1 +25.4 90 +39 +44 очень
душно
1009.3 1009.0
нст 2 19 км 10/2 480 м
[Ac Ci]
+26.9 +25.1 90 +39 +45 очень
душно
1009.5 1009.4
штиль 0 19 км 10/2 480 м
[Ac Ci]
+26.8 +25.2 91 +39 +44 очень
душно
1009.5 1009.4
штиль 0 19 км 10/3 300 м
[Cu hum Ac As Ci fib]
+26.1 +25.3 95 +38 +38 очень
душно
1009.5 1009.4 +26.1 +27.1 37.1
штиль 0 19 км 10/2 480 м
[Ac Ci]
+25.7 +25.2 97 +37 +37 очень
душно
1009.5 1009.4
нст 1 19 км 10/2 480 м
[Ac Ci]
+25.7 +25.1 96 +37 +37 очень
душно
1010.1 1010.0
нст 1 19 км 10/2 480 м
[Ac Ci]
+25.7 +25.1 96 +37 +37 очень
душно
1010.1 1010.0
штиль 0 19 км 10/5 480 м
[Ac Ci Cb]
+25.8 +25.2 96 +37 +37 очень
душно
1011.2 1011.1
штиль 0 18 км слаб. дождь 10/2 480 м
[Ac Ci Cb Ns]
+26.0 +25.5 97 +38 +38 очень
душно
1011.5 1011.4
нст 1 19 км в посл. час дождь {ливн. дождь} 10/3 300 м
[Cu hum Ac As Cs]
+27.4 +26.3 94 +42 +42 опасность
перегрева
1011.5 1011.4 +25.7 +27.4 0.5 17.8
нст 2 19 км 10/5 480 м
[Ac Ci]
+27.3 +26.3 94 +41 +41 опасность
перегрева
1011.2 1011.1
нст 1 19 км 8/5 480 м
[Ac Ci]
+29.1 +26.7 87 +45 +45 опасность
перегрева
1010.7 1010.4
нст 2 19 км 8/5 480 м
[Ac Ci Cb]
+29.2 +26.1 83 +44 +44 опасность
перегрева
1010.5 1010.4
нст 1 19 км 8/2 480 м
[Ac Ci Cb]
+27.4 +25.7 90 +40 +40 очень
душно
1010.0 1009.7
СЗ 4 19 км 8/2 480 м
[Ac Ci Cb]
+26.9 +25.1 90 +39 +39 очень
душно
1010.0 1009.7
нст 3 19 км {ливн. дождь} 8/3 300 м
[Cu hum Ac As Ci fib]
+28.6 +24.0 76 +40 +40 очень
душно
1009.3 1009.0 +26.9 +29.2 4.6 5.1
нст 2 19 км 8/2 480 м
[Ci]
+28.8 +24.2 76 +40 +40 очень
душно
1008.8 1008.7
штиль 0 19 км 8/2 480 м
[Ci]
+29.2 +24.1 74 +41 +41 опасность
перегрева
1009.1 1009.0
нст 2 19 км 10/2 480 м
[Ac Ci Cb]
+28.1 +25.6 86 +41 +43 опасность
перегрева
1010.0 1009.7
нст 2 19 км 10/2 480 м
[Ac Ci Cb]
+26.9 +25.5 92 +39 +44 очень
душно
1010.5 1010.4
нст 1 19 км 10/2 480 м
[Ac Ci]
+26.5 +25.4 94 +39 +46 очень
душно
1011.3 1011.1
нст 3 19 км 10/3 300 м
[Cu med, cong Ac As Cs]
+25.9 +24.9 94 +37 +43 очень
душно
1012.2 1012.1 +25.9 +29.2 5.1
штиль 0 19 км 10/5 480 м
[Ac Ci]
+25.3 +24.9 98 +36 +43 очень
душно
1012.5 1012.4
штиль 0 19 км 10/5 480 м
[Ac Ci Cb]
+25.3 +25.0 98 +36 +43 очень
душно
1012.2 1012.1
нст 2 19 км 10/2 480 м
[Ac Ci Cb]
+25.5 +24.9 96 +36 +42 очень
душно
1011.7 1011.4 2.0
нст 1 19 км 8/2 480 м
[Ac Ci]
+24.9 +24.4 97 +35 +41 очень
душно
1011.5 1011.4
штиль 0 19 км 8/2 480 м
[Ac Ci]
+24.9 +24.5 98 +35 +38 очень
душно
1010.7 1010.4
штиль 0 19 км {ливн. дождь} 6/1 300 м
[Cu hum Ac As Cs]
+25.1 +24.7 98 +35 +36 очень
душно
1010.1 1010.0 +24.9 +25.9 2.0 7.1
штиль 0 19 км 8/2 480 м
[Ac Ci]
+24.6 +24.3 98 +34 +34 очень
душно
1010.1 1010.0
нст 2 19 км 8/2 480 м
[Ac Ci]
+24.6 +24.4 99 +34 +34 очень
душно
1010.1 1010.0
нст 1 19 км 8/2 480 м
[Ac Ci]
+24.6 +24.2 98 +34 +34 очень
душно
1010.7 1010.4
нст 2 19 км 8/2 480 м
[Ac Ci]
+26.5 +26.0 97 +40 +40 очень
душно
1010.7 1010.4
нст 3 19 км 8/2 480 м
[Ac Ci]
+28.4 +26.6 90 +44 +44 опасность
перегрева
1011.2 1011.1
нст 3 19 км 9/3 300 м
[Cu hum Ci fib]
+29.6 +26.2 82 +45 +45 опасность
перегрева
1011.5 1011.4 +24.6 +29.6 7 6.6
нст 2 19 км 8/2 540 м
[Ci]
+30.3 +26.4 80 +46 +46 опасность
перегрева
1011.2 1011.1
нст 2 19 км 8/2 540 м
[Ci]
+30.6 +26.3 78 +47 +47 опасность
перегрева
1010.7 1010.4
В 4 19 км 8/2 540 м
[Ci]
+31.1 +26.3 76 +47 +47 опасность
перегрева
1010.0 1009.7
нст 2 19 км 8/5 540 м
[Ci]
+30.9 +26.1 76 +47 +47 опасность
перегрева
1009.1 1009.0
нст 3 19 км 8/5 540 м
[Ci]
+29.5 +25.8 81 +44 +44 опасность
перегрева
1008.8 1008.7
нст 3 19 км осадки на расстоянии 10/4 300 м
[Cu med, cong Ci fib]
+29.4 +26.0 82 +44 +44 опасность
перегрева
1008.4 1008.4 +29.4 +31.1 2.0
штиль 0 19 км 10/2 510 м
[Ac Ci]
+29.0 +26.1 84 +44 +44 опасность
перегрева
1008.3 1008.0
штиль 0 19 км 10/5 510 м
[Ac Ci]
+29.0 +25.8 83 +43 +44 опасность
перегрева
1008.8 1008.7
нст 2 н/о ливневой дождь 10/5 510 м
[Ac Ci Cb]
+28.3 +25.5 85 +42 +43 опасность
перегрева
1009.3 1009.0
нст 2 19 км 10/5 510 м
[Ac Ci]
+27.8 +25.0 85 1009.5 1008.0
нст 2 19 км 10/5 510 м
[Ac Ci]
+27.2 +24.9 87 +39 +43 очень
душно
1010.1 1010.0
нст 2 19 км 10/4 300 м
[Cu med, cong Ac As Ci fib]
+27.1 +25.2 89 +39 +44 очень
душно
1010.5 1010.4 +27.1 +29.4 2.0
нст 2 19 км 10/5 510 м
[Ac Ci]
+27.1 +25.3 90 +39 +45 очень
душно
1011.0 1010.7
нст 2 19 км 10/5 510 м
[Ac Ci]
+27.4 +25.5 89 +40 +45 очень
душно
1010.8 1010.7
нст 2 19 км гроза без осадков 10/5 510 м
[Ac Ci Cb]
+27.0 +24.0 84 +37 +41 очень
душно
1010.3 1010.0
нст 2 19 км 10/5 510 м
[Ac Ci Cb]
+25.4 +24.3 94 1009.8 1008.3
нст 3 19 км 10/8 510 м
[Ac Ci Cb]
+25.7 +25.2 97 1009.3 1007.8
нст 2 19 км {гроза, ливн. дождь} 10/6 300 м
[Cb calv Ac As Ci fib]
+26.1 +25.5 97 +38 +38 очень
душно
1008.8 1007.3 +25.0 +27.4 0.5 0.5
нст 2 19 км 10/8 510 м
[Ac Ci Cb]
+25.5 +25.2 98 1009.3 1007.8
нст 3 н/о слаб. ливневой дождь 10/8 510 м
[Ac Ci Cb]
+25.3 +24.4 95 1010.0 1008.5 9.4
нст 2 19 км 10/8 510 м
[Ac Ci Cb]
+25.4 +24.9 97 1010.5 1009.0
нст 2 19 км 10/5 510 м
[Ac Ci Cb]
+26.1 +25.4 96 1010.7 1009.2
штиль 0 19 км {ливн. дождь} 10/3 300 м
[Cb calv Ac As Ci fib]
+27.7 +26.6 94 +43 +43 опасность
перегрева
1010.8 1010.7 +25.3 +27.7 9.4 9.9
нст 3 19 км 10/2 510 м
[Ac Ci]
+29.8 +27.4 87 +48 +48 опасность
перегрева
1010.7 1010.4
нст 2 19 км 10/5 510 м
[Ac Ci]
+29.7 +26.0 81 +45 +45 опасность
перегрева
1010.5 1010.4
нст 3 19 км 10/2 510 м
[Ac Ci]
+30.5 +26.7 80 +47 +47 опасность
перегрева
1009.8 1009.7
нст 2 н/о ливневой дождь 10/5 510 м
[Ac Ci Cb]
+31.0 +27.1 80 +49 +49 опасность
перегрева
1009.0 1008.7
нст 3 19 км 10/2 510 м
[Ac Ci]
+30.7 +27.0 81 +48 +48 опасность
перегрева
1008.8 1008.7
В 4 19 км в посл. час ливневой дождь 9/4 300 м
[Cu med, cong Ci fib]
+29.7 +26.5 83 +46 +46 опасность
перегрева
1008.3 1008.0 +27.7 +31.0 0.0 9.9
нст 3 н/о ливневой дождь 8/5 480 м
[Ci Cb]
+30.2 +26.4 80 +46 +46 опасность
перегрева
1008.3 1008.0
нст 2 19 км 8/5 480 м
[Ci]
+28.7 +25.8 84 +43 +43 опасность
перегрева
1008.6 1008.4
нст 2 19 км 10/5 480 м
[Ac Ci]
+27.4 +25.6 90 +40 +42 очень
душно
1009.1 1009.0 0.3
нст 2 19 км 10/5 480 м
[Ac Ci]
+27.8 +25.5 87 +41 +43 опасность
перегрева
1009.5 1009.4
В 4 19 км 10/5 480 м
[Ac Ci]
+27.9 +25.8 88 +41 +44 опасность
перегрева
1009.8 1009.7
нст 2 19 км {ливн. дождь} 9/3 300 м
[Cu med, cong Ac As Ci fib]
+27.8 +25.5 87 +41 +41 опасность
перегрева
1010.0 1008.5 +27.4 +30.2 0.3 10.2
нст 2 19 км 8/2 480 м
[Ac Ci]
+27.7 +25.3 87 +40 +51 опасность
солнечного
удара
1010.1 1010.0
нст 2 19 км 8/2 480 м
[Ac Ci]
+27.8 +25.8 89 +41 +51 опасность
перегрева
1010.0 1009.7
нст 2 19 км 8/2 480 м
[Ac Ci Cu]
+27.8 +25.7 88 1009.5 1008.0
нст 2 19 км 10/2 480 м
[Ac Ci]
+27.7 +25.3 87 +40 +45 очень
душно
1009.0 1008.7
нст 3 19 км 10/5 480 м
[Ac Ci]
+27.8 +25.6 88 +41 +42 опасность
перегрева
1008.4 1008.4
нст 3 19 км 10/3 300 м
[Cu med, cong Ac As Cs]
+27.3 +25.2 88 +39 +40 очень
душно
1008.8 1008.7 +27.3 +27.8 9.7
нст 2 19 км 10/2 480 м
[Ac Ci]
+27.6 +24.9 85 +39 +39 очень
душно
1008.4 1008.4
штиль 0 19 км 10/2 480 м
[Ac Ci]
+23.8 +23.3 97 +32 +32 очень
душно
1008.4 1008.4
нст 2 18 км слаб. ливневой дождь 10/5 480 м
[Ac Ci Cb]
+24.8 +24.2 96 1008.8 1007.3 6.1
В 5 5000 м сильн. ливневой дождь 10/8 450 м
[Ac Cb]
+25.3 +24.8 97 1009.5 1008.0
нст 3 10 км слаб. ливневой дождь 10/8 450 м
[Ac Cb]
+23.9 +23.5 98 1010.7 1009.2
нст 3 12 км слаб. ливневой дождь 10/5 300 м
[Cb calv Ac As]
+24.6 +23.9 96 +34 +35 очень
душно
1011.0 1009.5 +23.8 +27.6 28.4 28.7
нст 3 16 км слаб. ливневой дождь 10/5 480 м
[Ac Cb]
+25.7 +25.0 96 1010.7 1009.2
Ю 5 5000 м гроза без осадков 10/8 450 м
[Ac Cb]
+24.0 +23.0 94 +32 +32 очень
душно
1012.1
нст 2 8000 м ливневой дождь 10/8 450 м
[Ac Cb]
+24.4 +23.8 96 +33 +33 очень
душно
1011.7 1010.2 33.5
нст 2 5000 м гроза без осадков 10/8 450 м
[Ac Cb]
+24.0 +24.0 100 +33 +33 очень
душно
1011.4
нст 1 5000 м сильн. ливневой дождь 10/8 450 м
[Ac Cb]
+24.3 +23.8 97 1010.7 1009.2
нст 2 16 км слаб. ливневой дождь {гроза} 10/5 300 м
[Cb calv As op]
+24.4 +23.8 96 +33 +34 очень
душно
1009.8 1008.3 +22.9 +25.7 43.7 72.4
нст 1 19 км 10/5 480 м
[Ac Cb]
+25.7 +24.8 95 1009.5 1008.0
нст 3 19 км 10/5 480 м
[Ac Cb]
+25.5 +24.6 95 1010.0 1008.5
нст 2 14 км слаб. ливневой дождь 10/8 480 м
[Ac Cb]
+24.7 +24.1 96 1009.8 1008.3 1.3
нст 2 19 км 10/5 480 м
[Ac Cb]
+25.6 +24.9 96 1010.7 1009.2
нст 3 16 км слаб. дождь 10/5 480 м
[Ac Ns]
+25.9 +24.9 94 +37 +40 очень
душно
1011.0 1010.7
нст 2 19 км в посл. час дождь {ливн. дождь} 10/4 300 м
[Cu hum As op]
+26.4 +25.3 94 +38 +43 очень
душно
1011.7 1011.4 +24.4 +26.4 1.3 73.4
нст 2 19 км 10/5 480 м
[Ac Ci]
+26.6 +25.2 92 +38 +44 очень
душно
1012.0 1011.7
нст 2 19 км 10/2 480 м
[Ac Ci]
+26.7 +25.2 91 +38 +46 очень
душно
1012.0 1011.7
нст 2 19 км 8/2 480 м
[Ac Ci]
+26.8 +25.2 91 +39 +47 очень
душно
1011.7 1011.4
нст 1 19 км 8/2 480 м
[Ac Ci]
+26.7 +25.2 91 +38 +45 очень
душно
1011.0 1010.7
нст 1 19 км 8/2 480 м
[Ac Ci]
+26.7 +25.2 91 +38 +42 очень
душно
1010.3 1010.0
нст 1 19 км 9/3 300 м
[Cu med, cong Ac As Ci fib]
+26.9 +25.4 92 +39 +39 очень
душно
1010.1 1008.6 +26.4 +26.9 73.4
нст 1 19 км 8/2 480 м
[Ac Ci]
+24.8 +22.8 89 +33 +33 очень
душно
1010.3 1010.0
штиль 0 19 км 8/2 480 м
[Ac Ci Cu]
+26.0 +24.7 93 1010.7 1009.2
штиль 0 19 км 8/2 480 м
[Ac Ci]
+28.3 +25.8 86 +42 +42 опасность
перегрева
1011.0 1010.7
нст 3 19 км 8/2 480 м
[Ac Ci]
+29.4 +25.9 81 +44 +44 опасность
перегрева
1011.2 1011.1
нст 3 19 км 5/3 300 м
[Cu hum Ci fib]
+30.1 +25.9 78 +45 +45 опасность
перегрева
1011.5 1011.4 +24.8 +30.1 45 45.0
нст 3 19 км 5/2 510 м
[Ci]
+30.5 +26.3 78 +46 +46 опасность
перегрева
1011.0 1010.7
нст 2 19 км 5/2 540 м
[Ci]
+30.5 +26.2 78 +46 +46 опасность
перегрева
1011.0 1010.7
нст 2 19 км 5/2 540 м
[Ci]
+30.9 +26.5 77 +47 +47 опасность
перегрева
1011.0 1010.7
нст 2 19 км 5/2 540 м
[Ci]
+31.1 +26.4 76 +47 +47 опасность
перегрева
1010.1 1010.0
нст 3 19 км 5/2 540 м
[Ci]
+30.8 +26.2 77 +47 +47 опасность
перегрева
1010.0 1009.7
нст 2 19 км 5/1 300 м
[Cu hum Ci fib]
+30.9 +26.0 75 +46 +46 опасность
перегрева
1009.0 1008.7 +30.1 +31.1 1.3
нст 2 19 км 8/2 540 м
[Ci]
+30.2 +25.5 76 +44 +44 опасность
перегрева
1008.4 1008.4
штиль 0 19 км 8/2 540 м
[Ac Ci]
+29.2 +25.3 80 +43 +44 опасность
перегрева
1009.0 1008.7
штиль 0 19 км 8/2 540 м
[Ac Ci]
+28.5 +25.4 83 +42 +45 опасность
перегрева
1009.8 1009.7
штиль 0 19 км 8/2 510 м
[Ac Ci]
+26.5 +25.3 93 +38 +46 очень
душно
1010.5 1010.4
штиль 0 19 км 8/2 510 м
[Ac Ci]
+26.1 +24.6 91 +37 +47 очень
душно
1011.5 1011.4
штиль 0 19 км 9/3 300 м
[Cu hum Ac As Ci fib]
+26.6 +24.8 90 +38 +51 опасность
солнечного
удара
1012.0 1011.7 +26.1 +30.9
штиль 0 19 км 8/2 510 м
[Ac Ci]
+26.1 +25.0 94 +37 +52 опасность
солнечного
удара
1012.2 1012.1
штиль 0 19 км 8/2 510 м
[Ci]
+25.7 +25.0 96 +37 +50 очень
душно
1012.0 1011.7
штиль 0 19 км 8/2 510 м
[Ci]
+26.1 +25.2 95 +38 +48 очень
душно
1010.7 1010.4
штиль 0 19 км 8/2 510 м
[Ci]
+25.8 +25.1 96 +37 +44 очень
душно
1010.5 1010.4
штиль 0 19 км 8/2 510 м
[Ci]
+25.1 +24.6 97 +35 +39 очень
душно
1010.3 1010.0
штиль 0 19 км 6/1 300 м
[Cu hum Ci fib]
+25.4 +24.6 95 +36 +37 очень
душно
1010.7 1010.4 +25.1 +26.6
штиль 0 19 км 5/2 510 м
[Ci]
+25.6 +24.8 95 +36 +36 очень
душно
1010.7 1010.4
нст 3 19 км 8/2 510 м
[Ci]
+24.7 +23.3 92 +33 +33 очень
душно
1010.8 1010.7
Местоположение метеостанции Остров Яп (Микронезия): широта 9.48 долгота 138.08 высота над уровнем моря 13 м.
В архиве по умолчанию представлена погода на Острове Яп за последнюю неделю. Архивные данные за месяц целиком и за предыдущие месяцы, начиная с января 2011 года, Вы можете получить, выбрав интересующий диапазон дат из раскрывающегося списка и нажав кнопку "Найти!".
*Определитесь, кто Вы:
Внимание! Время в таблицах - всемирное. Для получения местного времени необходимо прибавить поправку, которая равна 10 ч.
Смотрите также архив погоды в соседних городах и на ближайших метеорологических станциях:
Партнеры нашего сайта:      
Пояснения к столбцам:
  • Ветер - указаны скорость ветра в м/с - средняя за 10 мин, порывы в срок и между сроками (в фигурных скобках) и направление, откуда дует ветер: С - северный,
  • СВ - северо-восточный, В - восточный, ЮВ - юго-восточный, Ю - южный, ЮЗ - юго-западный, З - западный, СЗ - северо-западный.
  • Видимость - горизонтальная дальность видимости в метрах или километрах. При видимости от 1 до 10 км при отсутствии осадков обычно наблюдается дымка, при ухудшении видимости до 1 км и менее - туман. В сухую погоду видимость может ухудшаться дымом, пылью или мглою.
  • Явления - указаны атмосферные явления, наблюдавшиеся в срок или в последний час перед сроком; фигурными скобками обозначены явления, наблюдавшиеся между сроками (за 1-3 часа до срока); квадратными скобками обозначены град или гололедные отложения с указанием их диаметра в мм.
  • Облачность - указаны через наклонную черту общая и нижняя облачность в баллах и высота нижней границы облаков в метрах; квадратными скобками обозначены формы облаков: Ci - перистые, Cs - перисто-слоистые, Cc - перисто-кучевые, Ac - высококучевые, As - высокослоистые, Sc - слоисто-кучевые, Ns - слоисто-дождевые, Cu - кучевые, Cb - кучево-дождевые. Подробнее классификацию облаков см. в Атласе облаков (PDF).
  • T - Температура воздуха - температура, измеренная на высоте 2 м над землей.
  • Td - Температура точки росы - температура, при понижении до которой содержащийся в воздухе водяной пар достигнет насыщения.
  • f - Относительная влажность воздуха - влажноcть воздуха, измеренная на высоте 2 м над землей.
  • Te - Эффективная температура - температура, которую ощущает одетый по сезону человек в тени. Характеристика душности погоды. При расчете учитывается влияние влажности воздуха и скорости ветра на теплоощущения человека.
  • Tes - Эффективная температура на солнце - температура, которую ощущает человек, с поправкой на солнечный нагрев. Характеристика знойности погоды. Зависит от высоты солнца над горизонтом, облачности и скорости ветра. Ночью, в пасмурную погоду, а также при ветре 12 м/с и более поправка равна нулю.
  • P - Атмосферное давление - приведенное к уровню моря атмосферное давление.
  • Po - Атмосферное давление - измеренное на уровне метеостанции атмосферное давление.
  • Tmin - Минимальная температура - минимум температуры воздуха на высоте 2 м над землей.
  • Tmax - Максимальная температура - максимум температуры воздуха на высоте 2 м над землей.
  • R - Количество осадков - Количество выпавших осадков за период времени, мм. При наведении курсора мыши на число - период времени, за который выпало указанное количество осадков.
  • R24 - Количество осадков - Количество выпавших осадков за 24 часа, мм.
  • S - Снежный покров - Высота снежного покрова, см. При наведении курсора мыши на число - состояние снежного покрова и степень покрытия местности в баллах.